Lid_Strength_Index
13 12 12 11 11 10 10 9 8 6 5 5 5 5 5 4 4 3 2 2 1 1 -0 -1 -0 0 1 1 1 -0 -0 -1 -0 -0 0 1 2 1 1 1 2 3 3
13 13 12 12 11 10 9 8 8 7 6 5 5 5 5 5 4 3 2 3 2 1 1 0 -0 1 1 1 0 -0 -1 -1 -0 0 1 1 2 3 3 2 3 3 3
13 13 13 12 11 10 9 8 8 7 6 6 5 5 5 5 4 3 2 3 3 3 2 1 1 2 2 2 -0 -0 -0 -1 -0 1 1 2 3 3 4 4 3 4 4
13 13 13 12 11 10 9 8 8 8 7 6 6 6 6 5 4 2 2 3 4 4 4 3 2 3 4 2 -0 -0 -0 0 0 1 2 3 3 4 5 5 4 4 4
13 14 14 13 11 10 10 9 8 8 8 7 7 5 5 5 3 5 3 4 4 5 6 5 5 6 6 4 -0 -0 -0 1 1 1 2 3 4 4 5 5 5 5 5
14 14 14 13 12 11 10 9 9 8 8 8 7 6 4 5 4 6 4 4 5 6 6 6 7 8 8 6 -0 -0 0 1 1 2 3 4 4 4 5 6 6 5 5
14 14 14 13 12 12 11 10 9 9 8 7 7 6 6 5 6 6 5 5 6 6 7 7 9 9 10 8 3 1 0 0 1 3 3 4 4 5 5 5 5 6 6
15 15 15 14 13 12 11 10 10 10 9 8 9 7 9 7 6 6 7 6 7 6 8 8 9 10 10 9 7 0 -0 -0 1 2 4 4 5 5 5 6 6 6 7
16 16 15 14 13 12 12 11 10 10 11 9 7 9 10 11 9 8 7 7 9 6 8 9 10 9 9 9 7 1 1 1 2 3 3 4 4 5 5 6 6 6 7
17 16 15 15 14 12 12 11 10 10 10 10 8 7 7 8 10 12 9 8 8 8 8 9 10 9 9 9 8 5 3 2 2 3 3 4 4 5 6 6 6 6 7
17 17 16 15 14 13 11 11 10 10 10 10 9 8 8 8 8 11 12 11 9 9 8 9 10 10 10 9 8 7 5 4 4 5 5 5 6 6 6 6 6 7 7
18 17 16 15 14 13 12 11 10 10 10 9 9 8 8 9 10 10 12 12 11 10 9 9 10 11 11 10 9 9 6 6 5 6 6 6 6 6 6 7 7 8 8
18 18 17 15 14 13 11 10 10 10 9 9 8 8 8 7 8 9 10 11 12 10 10 9 10 11 11 11 10 10 8 7 7 6 7 7 7 7 7 7 8 9 9
19 17 17 15 14 13 11 10 10 10 9 9 8 8 8 7 8 9 10 11 12 11 9 12 10 10 10 10 11 10 9 8 7 7 7 8 8 8 8 8 9 9 10
18 18 17 16 14 13 12 10 10 10 10 9 8 8 8 8 8 8 8 9 11 13 12 10 12 9 10 10 10 10 10 9 9 8 8 8 9 9 9 9 9 9 10
19 18 17 16 14 13 12 11 11 10 10 9 8 9 9 8 8 8 8 8 9 11 12 10 10 10 10 10 11 11 11 10 10 10 9 9 9 9 10 10 10 10 10
19 18 18 16 15 14 12 11 12 11 11 10 9 9 10 9 9 9 9 8 9 10 11 9 10 11 11 12 12 11 11 11 11 10 10 10 10 10 11 11 11 10 10
19 18 18 17 15 14 13 12 12 11 12 12 11 10 11 9 10 9 9 9 9 9 10 12 11 12 12 12 13 13 12 12 12 11 10 11 11 11 11 11 11 11 10
20 19 18 17 16 15 13 11 12 12 11 12 11 11 12 11 10 9 8 8 9 9 10 11 11 12 12 13 13 14 14 14 13 12 12 11 12 12 11 11 11 11 10
21 21 19 18 17 15 12 11 12 13 12 12 11 11 11 11 11 9 8 8 9 10 11 11 11 12 12 13 13 13 14 13 14 14 14 14 14 13 12 12 11 11 10
23 23 21 19 18 14 11 11 12 13 12 13 12 12 11 11 10 8 7 8 9 10 11 12 12 12 12 13 13 13 15 15 15 15 15 16 15 15 14 13 12 11 11
24 23 22 20 19 15 11 10 12 13 13 13 13 12 12 10 10 8 6 6 8 10 12 13 13 14 14 13 13 14 15 16 17 14 16 17 15 15 16 15 10 11 11
24 24 23 21 20 18 11 11 12 13 13 14 13 13 12 11 10 8 8 7 9 9 9 11 13 13 14 13 13 14 13 15 16 16 16 17 16 16 16 15 10 11 11
24 22 22 21 20 18 12 11 12 14 13 14 14 13 13 12 10 8 9 8 9 10 10 10 11 12 12 12 12 12 14 14 15 15 14 17 16 17 16 15 12 12 12
22 22 21 21 20 19 13 12 14 15 15 15 15 14 12 11 8 7 9 10 10 10 9 9 10 11 12 11 11 12 13 14 15 16 15 15 16 16 16 16 15 13 13
22 20 20 20 21 19 15 12 13 15 16 16 15 15 12 9 8 8 10 10 11 11 10 11 11 11 12 13 13 14 13 14 15 15 14 15 15 16 17 15 16 15 15